N054ER KGSO-KCLT

Flight info

Callsign N054ER
Flight time 0h 53m
Altitude 4000
Route GANTS V409 LOCAS
Aircraft C172/L-SFG/C

Departure

Time 2026-04-25 06:10
Airport Piedmont Triad International Airport (KGSO)

Arrival

Time 2026-04-25 07:03
Airport Charlotte Douglas International Airport (KCLT)
Time Latitude Longitude Altitude Speed Heading
2026-04-25 05:49 36.09458 -79.94990 897 ft 0 kts 46°
2026-04-25 06:05 36.09461 -79.94985 917 ft 4 kts 63°
2026-04-25 06:06 36.09454 -79.94907 916 ft 13 kts 62°
2026-04-25 06:06 36.09526 -79.94908 917 ft 15 kts 315°
2026-04-25 06:06 36.09616 -79.95019 920 ft 20 kts 316°
2026-04-25 06:06 36.09726 -79.95155 924 ft 22 kts 316°
2026-04-25 06:07 36.09819 -79.95266 927 ft 14 kts 323°
2026-04-25 06:07 36.09870 -79.95287 928 ft 0 kts 358°
2026-04-25 06:07 36.09886 -79.95285 929 ft 8 kts 14°
2026-04-25 06:08 36.09918 -79.95207 928 ft 19 kts 130°
2026-04-25 06:08 36.09870 -79.95146 926 ft 2 kts 137°
2026-04-25 06:08 36.09815 -79.95078 924 ft 23 kts 135°
2026-04-25 06:08 36.09610 -79.94828 917 ft 62 kts 135°
2026-04-25 06:09 36.09225 -79.94350 929 ft 89 kts 137°
2026-04-25 06:09 36.08842 -79.93795 1128 ft 83 kts 131°
2026-04-25 06:09 36.08511 -79.93248 1317 ft 77 kts 145°
2026-04-25 06:09 36.08018 -79.92944 1438 ft 81 kts 171°
2026-04-25 06:10 36.07429 -79.92908 1491 ft 92 kts 193°
2026-04-25 06:10 36.06822 -79.93180 1598 ft 87 kts 216°
2026-04-25 06:10 36.06390 -79.93613 1826 ft 77 kts 217°
2026-04-25 06:10 36.05877 -79.93771 1994 ft 76 kts 201°
2026-04-25 06:11 36.05376 -79.93900 2271 ft 69 kts 200°
2026-04-25 06:11 36.04928 -79.94016 2529 ft 64 kts 203°
2026-04-25 06:11 36.04462 -79.94150 2784 ft 74 kts 203°
2026-04-25 06:11 36.03955 -79.94292 3104 ft 77 kts 203°
2026-04-25 06:12 36.03435 -79.94430 3305 ft 76 kts 202°
2026-04-25 06:12 36.02915 -79.94574 3506 ft 77 kts 200°
2026-04-25 06:12 36.02396 -79.94711 3722 ft 76 kts 201°
2026-04-25 06:12 36.01880 -79.94860 3865 ft 76 kts 201°
2026-04-25 06:13 36.01310 -79.95021 3956 ft 94 kts 197°
2026-04-25 06:13 36.00581 -79.95234 3991 ft 119 kts 199°
2026-04-25 06:13 35.99757 -79.95473 3919 ft 125 kts 198°
2026-04-25 06:14 35.98073 -79.95938 3895 ft 123 kts 197°
2026-04-25 06:14 35.97241 -79.96167 3892 ft 122 kts 198°
2026-04-25 06:14 35.96414 -79.96395 3889 ft 122 kts 198°
2026-04-25 06:14 35.95600 -79.96621 3889 ft 121 kts 198°
2026-04-25 06:15 35.94775 -79.96845 3907 ft 122 kts 197°
2026-04-25 06:15 35.93945 -79.97080 3898 ft 127 kts 198°
2026-04-25 06:15 35.93062 -79.97332 3894 ft 131 kts 197°
2026-04-25 06:15 35.92182 -79.97566 3913 ft 126 kts 197°
2026-04-25 06:16 35.91303 -79.97820 3887 ft 129 kts 200°
2026-04-25 06:16 35.90437 -79.98059 3873 ft 127 kts 197°
2026-04-25 06:16 35.89571 -79.98283 3911 ft 126 kts 199°
2026-04-25 06:16 35.88690 -79.98536 3871 ft 128 kts 198°
2026-04-25 06:17 35.87825 -79.98771 3874 ft 129 kts 198°
2026-04-25 06:17 35.86955 -79.99013 3889 ft 125 kts 198°
2026-04-25 06:17 35.86110 -79.99243 3909 ft 123 kts 198°
2026-04-25 06:17 35.85274 -79.99476 3910 ft 124 kts 189°
2026-04-25 06:18 35.84421 -79.99706 3899 ft 125 kts 198°
2026-04-25 06:18 35.83592 -79.99944 3919 ft 129 kts 199°
2026-04-25 06:18 35.82709 -80.00189 3899 ft 125 kts 197°
2026-04-25 06:18 35.81866 -80.00415 3901 ft 120 kts 198°
2026-04-25 06:19 35.81074 -80.00634 3908 ft 117 kts 198°
2026-04-25 06:19 35.80282 -80.00851 3902 ft 116 kts 198°
2026-04-25 06:19 35.79495 -80.01071 3951 ft 118 kts 198°
2026-04-25 06:19 35.78680 -80.01296 3913 ft 117 kts 198°
2026-04-25 06:20 35.77887 -80.01510 3909 ft 116 kts 198°
2026-04-25 06:20 35.77098 -80.01723 3908 ft 116 kts 198°
2026-04-25 06:20 35.76317 -80.01939 3940 ft 116 kts 196°
2026-04-25 06:20 35.75465 -80.02179 3879 ft 128 kts 198°
2026-04-25 06:21 35.74632 -80.02410 3908 ft 120 kts 198°
2026-04-25 06:21 35.73808 -80.02637 3912 ft 120 kts 198°
2026-04-25 06:21 35.73001 -80.02858 3908 ft 118 kts 198°
2026-04-25 06:21 35.72200 -80.03071 3965 ft 121 kts 197°
2026-04-25 06:22 35.71365 -80.03307 3912 ft 120 kts 198°
2026-04-25 06:22 35.70523 -80.03549 3866 ft 132 kts 198°
2026-04-25 06:22 35.69670 -80.03777 3926 ft 122 kts 198°
2026-04-25 06:22 35.68839 -80.03998 3927 ft 123 kts 198°
2026-04-25 06:23 35.68016 -80.04227 3913 ft 119 kts 198°
2026-04-25 06:23 35.67215 -80.04447 3909 ft 117 kts 198°
2026-04-25 06:23 35.66389 -80.04681 3904 ft 130 kts 198°
2026-04-25 06:23 35.65538 -80.04911 3911 ft 122 kts 198°
2026-04-25 06:24 35.64722 -80.05133 3999 ft 122 kts 197°
2026-04-25 06:24 35.63861 -80.05373 3910 ft 124 kts 198°
2026-04-25 06:24 35.63043 -80.05594 3908 ft 118 kts 198°
2026-04-25 06:24 35.62257 -80.05808 3931 ft 115 kts 200°
2026-04-25 06:25 35.61428 -80.06042 3920 ft 128 kts 197°
2026-04-25 06:25 35.60574 -80.06270 3918 ft 123 kts 198°
2026-04-25 06:25 35.59759 -80.06492 3903 ft 117 kts 197°
2026-04-25 06:25 35.58945 -80.06706 3929 ft 122 kts 198°
2026-04-25 06:26 35.58098 -80.06948 3897 ft 127 kts 198°
2026-04-25 06:26 35.57261 -80.07181 3891 ft 124 kts 198°
2026-04-25 06:26 35.56447 -80.07402 3914 ft 118 kts 198°
2026-04-25 06:26 35.55654 -80.07614 3925 ft 116 kts 199°
2026-04-25 06:27 35.54862 -80.07840 3927 ft 119 kts 198°
2026-04-25 06:27 35.54049 -80.08064 3920 ft 125 kts 198°
2026-04-25 06:27 35.53209 -80.08291 3921 ft 120 kts 198°
2026-04-25 06:27 35.52400 -80.08508 3923 ft 117 kts 198°
2026-04-25 06:28 35.51604 -80.08728 3956 ft 120 kts 198°
2026-04-25 06:28 35.50789 -80.08952 3937 ft 122 kts 197°
2026-04-25 06:28 35.49973 -80.09174 3927 ft 118 kts 198°
2026-04-25 06:28 35.49174 -80.09391 3928 ft 118 kts 198°
2026-04-25 06:29 35.48377 -80.09608 3926 ft 117 kts 198°
2026-04-25 06:29 35.47589 -80.09823 3927 ft 116 kts 198°
2026-04-25 06:29 35.46790 -80.10046 3985 ft 119 kts 198°
2026-04-25 06:29 35.45972 -80.10268 3941 ft 119 kts 197°
2026-04-25 06:30 35.45228 -80.10629 3942 ft 113 kts 220°
2026-04-25 06:30 35.44685 -80.11309 3944 ft 111 kts 231°
2026-04-25 06:30 35.44169 -80.12010 3941 ft 111 kts 231°
2026-04-25 06:30 35.43660 -80.12701 3940 ft 110 kts 231°
2026-04-25 06:31 35.43146 -80.13399 3939 ft 110 kts 231°
2026-04-25 06:31 35.42617 -80.14121 3973 ft 124 kts 231°
2026-04-25 06:31 35.42010 -80.14958 3947 ft 133 kts 231°
2026-04-25 06:31 35.41396 -80.15806 3938 ft 132 kts 230°
2026-04-25 06:32 35.40788 -80.16616 3921 ft 126 kts 231°
2026-04-25 06:32 35.40224 -80.17382 3923 ft 117 kts 230°
2026-04-25 06:32 35.39700 -80.18090 3924 ft 111 kts 230°
2026-04-25 06:32 35.39187 -80.18784 3930 ft 110 kts 231°
2026-04-25 06:33 35.38673 -80.19486 3976 ft 112 kts 230°
2026-04-25 06:33 35.38135 -80.20223 3965 ft 114 kts 231°
2026-04-25 06:33 35.37583 -80.20974 3927 ft 118 kts 230°
2026-04-25 06:33 35.37045 -80.21712 3931 ft 115 kts 230°
2026-04-25 06:34 35.36509 -80.22425 3949 ft 111 kts 231°
2026-04-25 06:34 35.35987 -80.23133 3923 ft 111 kts 230°
2026-04-25 06:34 35.35472 -80.23831 3924 ft 109 kts 231°
2026-04-25 06:34 35.34967 -80.24521 3928 ft 109 kts 230°
2026-04-25 06:35 35.34448 -80.25216 3898 ft 116 kts 231°
2026-04-25 06:35 35.33913 -80.25944 3941 ft 119 kts 230°
2026-04-25 06:35 35.33362 -80.26700 3918 ft 119 kts 230°
2026-04-25 06:35 35.32812 -80.27447 3923 ft 117 kts 230°
2026-04-25 06:36 35.32264 -80.28191 3931 ft 117 kts 231°
2026-04-25 06:36 35.31717 -80.28934 3929 ft 118 kts 231°
2026-04-25 06:36 35.31170 -80.29676 3914 ft 114 kts 230°
2026-04-25 06:36 35.30652 -80.30383 3913 ft 114 kts 231°
2026-04-25 06:37 35.30117 -80.31097 3908 ft 112 kts 230°
2026-04-25 06:37 35.29601 -80.31788 3926 ft 111 kts 231°
2026-04-25 06:37 35.29074 -80.32524 3897 ft 118 kts 230°
2026-04-25 06:37 35.28530 -80.33237 3913 ft 112 kts 231°
2026-04-25 06:38 35.28016 -80.33939 3922 ft 111 kts 233°
2026-04-25 06:38 35.27478 -80.34675 3909 ft 115 kts 230°
2026-04-25 06:38 35.26943 -80.35397 3911 ft 117 kts 231°
2026-04-25 06:38 35.26390 -80.36151 3920 ft 123 kts 230°
2026-04-25 06:39 35.25828 -80.36906 3903 ft 121 kts 230°
2026-04-25 06:39 35.25280 -80.37636 3921 ft 114 kts 230°
2026-04-25 06:39 35.24752 -80.38354 3906 ft 112 kts 231°
2026-04-25 06:39 35.24236 -80.39052 3903 ft 110 kts 231°
2026-04-25 06:40 35.23728 -80.39743 3915 ft 113 kts 230°
2026-04-25 06:40 35.23179 -80.40484 3904 ft 118 kts 230°
2026-04-25 06:40 35.22648 -80.41203 3893 ft 111 kts 231°
2026-04-25 06:40 35.22137 -80.41903 3925 ft 113 kts 231°
2026-04-25 06:41 35.21584 -80.42632 3909 ft 115 kts 231°
2026-04-25 06:41 35.21059 -80.43347 3927 ft 112 kts 231°
2026-04-25 06:41 35.20516 -80.44073 3914 ft 121 kts 230°
2026-04-25 06:41 35.19958 -80.44862 3902 ft 119 kts 235°
2026-04-25 06:42 35.19452 -80.45638 3885 ft 116 kts 234°
2026-04-25 06:42 35.18967 -80.46377 3897 ft 111 kts 234°
2026-04-25 06:42 35.18475 -80.47124 3876 ft 116 kts 234°
2026-04-25 06:42 35.17984 -80.47877 3895 ft 111 kts 234°
2026-04-25 06:43 35.17821 -80.48737 3906 ft 111 kts 294°
2026-04-25 06:43 35.18399 -80.49448 3885 ft 127 kts 319°
2026-04-25 06:43 35.19095 -80.50101 3880 ft 128 kts 320°
2026-04-25 06:43 35.19829 -80.50684 3911 ft 124 kts 323°
2026-04-25 06:44 35.20573 -80.51267 3916 ft 130 kts 323°
2026-04-25 06:44 35.21071 -80.51655 3897 ft 125 kts 323°
2026-04-25 06:44 35.21788 -80.52220 3916 ft 126 kts 322°
2026-04-25 06:44 35.22531 -80.52808 3936 ft 127 kts 323°
2026-04-25 06:45 35.23259 -80.53379 3914 ft 120 kts 323°
2026-04-25 06:45 35.23976 -80.53940 3897 ft 127 kts 323°
2026-04-25 06:45 35.24935 -80.54692 3923 ft 123 kts 323°
2026-04-25 06:45 35.25406 -80.55059 3926 ft 120 kts 323°
2026-04-25 06:46 35.26129 -80.55626 3927 ft 128 kts 323°
2026-04-25 06:46 35.26886 -80.56216 3923 ft 127 kts 323°
2026-04-25 06:46 35.27631 -80.56800 3902 ft 130 kts 323°
2026-04-25 06:46 35.28365 -80.57377 3929 ft 122 kts 322°
2026-04-25 06:47 35.29092 -80.57944 3918 ft 122 kts 323°
2026-04-25 06:47 35.29794 -80.58492 3923 ft 118 kts 323°
2026-04-25 06:47 35.30488 -80.59030 3918 ft 118 kts 323°
2026-04-25 06:47 35.31203 -80.59582 3932 ft 124 kts 320°
2026-04-25 06:48 35.31942 -80.60101 3925 ft 121 kts 329°
2026-04-25 06:48 35.32676 -80.60566 3921 ft 114 kts 314°
2026-04-25 06:48 35.33161 -80.61306 3924 ft 112 kts 304°
2026-04-25 06:48 35.33670 -80.62084 3884 ft 121 kts 305°
2026-04-25 06:49 35.34212 -80.62898 3719 ft 126 kts 305°
2026-04-25 06:49 35.34763 -80.63736 3649 ft 127 kts 305°
2026-04-25 06:49 35.35317 -80.64577 3589 ft 126 kts 305°
2026-04-25 06:49 35.35872 -80.65422 3390 ft 128 kts 305°
2026-04-25 06:50 35.36433 -80.66268 3264 ft 127 kts 305°
2026-04-25 06:50 35.36993 -80.67097 3179 ft 127 kts 305°
2026-04-25 06:50 35.37557 -80.67928 3024 ft 127 kts 304°
2026-04-25 06:50 35.38122 -80.68758 2935 ft 121 kts 305°
2026-04-25 06:51 35.38662 -80.69554 2924 ft 122 kts 305°
2026-04-25 06:51 35.39188 -80.70332 2936 ft 118 kts 304°
2026-04-25 06:51 35.39718 -80.71119 2911 ft 121 kts 303°
2026-04-25 06:51 35.40155 -80.71942 2935 ft 115 kts 297°
2026-04-25 06:52 35.40575 -80.72770 2927 ft 113 kts 298°
2026-04-25 06:52 35.41005 -80.73610 2938 ft 121 kts 297°
2026-04-25 06:52 35.41456 -80.74499 2915 ft 123 kts 298°
2026-04-25 06:52 35.41904 -80.75371 2922 ft 120 kts 298°
2026-04-25 06:53 35.42337 -80.76213 2922 ft 114 kts 296°
2026-04-25 06:53 35.42607 -80.77114 2921 ft 110 kts 267°
2026-04-25 06:53 35.42456 -80.77993 2932 ft 106 kts 258°
2026-04-25 06:53 35.42289 -80.78907 2844 ft 114 kts 258°
2026-04-25 06:54 35.42118 -80.79865 2736 ft 116 kts 257°
2026-04-25 06:54 35.41945 -80.80838 2663 ft 117 kts 258°
2026-04-25 06:54 35.41772 -80.81823 2737 ft 119 kts 258°
2026-04-25 06:54 35.41596 -80.82808 2682 ft 118 kts 258°
2026-04-25 06:55 35.41414 -80.83795 2562 ft 118 kts 258°
2026-04-25 06:55 35.41233 -80.84778 2483 ft 118 kts 258°
2026-04-25 06:55 35.41051 -80.85771 2430 ft 123 kts 258°
2026-04-25 06:55 35.40862 -80.86795 2390 ft 123 kts 258°
2026-04-25 06:56 35.40683 -80.87767 2413 ft 114 kts 258°
2026-04-25 06:56 35.40535 -80.88699 2417 ft 114 kts 260°
2026-04-25 06:56 35.40396 -80.89618 2399 ft 110 kts 259°
2026-04-25 06:56 35.40237 -80.90541 2336 ft 111 kts 252°
2026-04-25 06:57 35.39883 -80.91385 2381 ft 111 kts 240°
2026-04-25 06:57 35.39450 -80.92174 2386 ft 111 kts 239°
2026-04-25 06:57 35.39009 -80.92953 2380 ft 110 kts 239°
2026-04-25 06:57 35.38528 -80.93693 2325 ft 112 kts 233°
2026-04-25 06:58 35.38009 -80.94423 2571 ft 112 kts 234°
2026-04-25 06:58 35.37497 -80.95151 2511 ft 113 kts 234°
2026-04-25 06:58 35.36940 -80.95825 2446 ft 116 kts 214°
2026-04-25 06:58 35.36161 -80.96158 2642 ft 118 kts 202°
2026-04-25 06:59 35.35374 -80.96451 2582 ft 118 kts 208°
2026-04-25 06:59 35.34608 -80.96820 2532 ft 119 kts 207°
2026-04-25 06:59 35.33833 -80.97167 2582 ft 121 kts 199°
2026-04-25 06:59 35.32971 -80.97338 2428 ft 129 kts 196°
2026-04-25 07:00 35.32062 -80.97516 2483 ft 135 kts 189°
2026-04-25 07:00 35.31114 -80.97318 2326 ft 141 kts 175°
2026-04-25 07:00 35.30147 -80.97136 2066 ft 142 kts 181°
2026-04-25 07:00 35.29184 -80.97024 1978 ft 130 kts 182°
2026-04-25 07:01 35.28391 -80.96918 1922 ft 106 kts 181°
2026-04-25 07:01 35.27695 -80.96896 1789 ft 98 kts 191°
2026-04-25 07:01 35.27015 -80.96928 1662 ft 98 kts 187°
2026-04-25 07:01 35.26346 -80.96905 1547 ft 98 kts 183°
2026-04-25 07:02 35.25664 -80.96898 1450 ft 101 kts 185°
2026-04-25 07:02 35.24971 -80.96874 1426 ft 100 kts 182°
2026-04-25 07:02 35.24250 -80.96861 1264 ft 104 kts 182°
2026-04-25 07:02 35.23532 -80.96811 1027 ft 100 kts 181°
2026-04-25 07:03 35.22865 -80.96763 867 ft 93 kts 181°
2026-04-25 07:03 35.22241 -80.96716 758 ft 83 kts 181°
2026-04-25 07:03 35.21770 -80.96679 750 ft 54 kts 175°
2026-04-25 07:03 35.21501 -80.96654 747 ft 30 kts 178°
2026-04-25 07:04 35.21329 -80.96641 746 ft 22 kts 178°
2026-04-25 07:04 35.21135 -80.96623 745 ft 33 kts 175°
2026-04-25 07:04 35.20920 -80.96592 746 ft 25 kts 166°
2026-04-25 07:04 35.20793 -80.96552 748 ft 13 kts 116°
2026-04-25 07:05 35.20757 -80.96496 747 ft 0 kts 143°